DW8356 Weather Reports


Display with metric or nautical units.
time (UTC)temp
F
wind
direction
speed
MPH
gust
MPH
rain 1hr
in
rain 24hr
in
rain mn
in
humidity
%
barometer
mb
20260904234548 95 186 3.0 9.0 0.00 0.00 0.00 45 1011.6
20260904234024 95 246 3.0 9.0 0.00 0.00 0.00 44 1011.6
20260904233524 95 173 2.0 9.0 0.00 0.00 0.00 44 1011.6
20260904233051 96 161 2.0 9.0 0.00 0.00 0.00 44 1011.6
20260904232525 96 151 3.0 11.0 0.00 0.00 0.00 44 1011.6
20260904232024 96 146 2.0 11.0 0.00 0.00 0.00 44 1011.6
20260904231544 97 217 4.0 10.0 0.00 0.00 0.00 43 1011.5
20260904231023 97 215 3.0 8.0 0.00 0.00 0.00 44 1011.5
20260904230523 97 193 1.0 8.0 0.00 0.00 0.00 44 1011.5
20260904230043 97 0 2.0 10.0 0.00 0.00 0.00 43 1011.5
20260904225525 97 169 3.0 10.0 0.00 0.00 0.00 42 1011.5
20260904225024 98 138 2.0 10.0 0.00 0.00 0.00 42 1011.6
20260904224549 98 151 2.0 10.0 0.00 0.00 0.00 42 1011.7
20260904224026 99 123 2.0 7.0 0.00 0.00 0.00 41 1011.7
20260904223524 100 190 3.0 10.0 0.00 0.00 0.00 41 1011.7
20260904223045 100 179 2.0 10.0 0.00 0.00 0.00 40 1011.7
20260904222523 100 185 3.0 10.0 0.00 0.00 0.00 40 1011.8
20260904222024 100 197 2.0 10.0 0.00 0.00 0.00 41 1011.7
20260904221549 100 182 0.0 7.0 0.00 0.00 0.00 40 1011.7
20260904221024 99 192 1.0 7.0 0.00 0.00 0.00 41 1011.7
20260904220521 99 150 1.0 10.0 0.00 0.00 0.00 40 1011.8
20260904220044 99 187 3.0 10.0 0.00 0.00 0.00 41 1011.8
20260904215525 99 161 1.0 8.0 0.00 0.00 0.00 41 1011.9
20260904215026 99 172 2.0 8.0 0.00 0.00 0.00 41 1012.1
20260904214545 98 194 0.0 5.0 0.00 0.00 0.00 43 1012.0
20260904214024 97 179 0.0 8.0 0.00 0.00 0.00 43 1012.1
20260904213524 98 111 2.0 10.0 0.00 0.00 0.00 42 1012.1
20260904213045 98 0 1.0 11.0 0.00 0.00 0.00 41 1012.1
20260904212521 99 190 3.0 13.0 0.00 0.00 0.00 42 1012.1
20260904212024 98 159 2.0 13.0 0.00 0.00 0.00 42 1012.1
20260904211545 97 99 2.0 8.0 0.00 0.00 0.00 43 1012.2
20260904211025 98 241 2.0 11.0 0.00 0.00 0.00 42 1012.4
20260904210524 99 158 3.0 11.0 0.00 0.00 0.00 41 1012.4
20260904210052 100 168 2.0 9.0 0.00 0.00 0.00 41 1012.5
20260904205529 100 157 2.0 9.0 0.00 0.00 0.00 41 1012.5
20260904205025 100 135 3.0 9.0 0.00 0.00 0.00 41 1012.5
20260904204545 99 191 2.0 8.0 0.00 0.00 0.00 42 1012.5
20260904204025 99 173 2.0 8.0 0.00 0.00 0.00 41 1012.4
20260904203524 99 155 1.0 11.0 0.00 0.00 0.00 42 1012.7
20260904203049 101 191 2.0 11.0 0.00 0.00 0.00 39 1012.7
20260904202522 102 191 1.0 10.0 0.00 0.00 0.00 38 1012.7
20260904202025 102 172 1.0 6.0 0.00 0.00 0.00 41 1012.8
20260904201548 102 172 2.0 6.0 0.00 0.00 0.00 41 1012.9
20260904201024 101 188 1.0 8.0 0.00 0.00 0.00 41 1012.8
20260904200527 101 211 3.0 8.0 0.00 0.00 0.00 41 1013.1
20260904200045 101 175 2.0 10.0 0.00 0.00 0.00 40 1013.1
20260904195527 101 215 2.0 10.0 0.00 0.00 0.00 39 1013.2
20260904195024 101 154 2.0 9.0 0.00 0.00 0.00 40 1013.2
20260904194543 100 186 1.0 9.0 0.00 0.00 0.00 41 1013.3
20260904194023 100 169 3.0 9.0 0.00 0.00 0.00 40 1013.3
20260904193523 100 147 3.0 6.0 0.00 0.00 0.00 40 1013.4
20260904193041 99 259 1.0 8.0 0.00 0.00 0.00 41 1013.3
20260904192523 100 233 2.0 8.0 0.00 0.00 0.00 40 1013.5
20260904192025 100 241 2.0 10.0 0.00 0.00 0.00 40 1013.5
20260904191545 100 194 1.0 10.0 0.00 0.00 0.00 41 1013.5
20260904191024 99 191 2.0 8.0 0.00 0.00 0.00 42 1013.6
20260904190524 99 202 1.0 8.0 0.00 0.00 0.00 42 1013.7
20260904190045 99 153 2.0 8.0 0.00 0.00 0.00 43 1013.7
20260904185524 99 208 0.0 5.0 0.00 0.00 0.00 43 1013.8
20260904185023 99 213 1.0 6.0 0.00 0.00 0.00 45 1013.8
20260904184542 98 179 1.0 7.0 0.00 0.00 0.00 45 1013.8
20260904184023 99 177 2.0 9.0 0.00 0.00 0.00 44 1014.0
20260904183521 98 151 2.0 9.0 0.00 0.00 0.00 45 1014.0
20260904183047 99 34 2.0 10.0 0.00 0.00 0.00 43 1014.2
20260904182528 99 0 2.0 10.0 0.00 0.00 0.00 45 1014.3
20260904182027 98 169 0.0 6.0 0.00 0.00 0.00 46 1014.4
20260904181550 98 232 1.0 8.0 0.00 0.00 0.00 45 1014.5
20260904181027 97 146 2.0 9.0 0.00 0.00 0.00 46 1014.6
20260904180525 96 171 2.0 9.0 0.00 0.00 0.00 47 1014.7
20260904180043 96 194 2.0 9.0 0.00 0.00 0.00 47 1014.7
20260904175527 96 209 1.0 5.0 0.00 0.00 0.00 47 1014.7
20260904175024 96 247 1.0 6.0 0.00 0.00 0.00 49 1014.9
20260904174602 96 213 1.0 7.0 0.00 0.00 0.00 48 1014.9
20260904174024 96 189 3.0 9.0 0.00 0.00 0.00 47 1014.9
20260904173523 96 146 2.0 9.0 0.00 0.00 0.00 48 1015.0
20260904173053 95 171 2.0 7.0 0.00 0.00 0.00 49 1015.1
20260904172524 95 146 2.0 7.0 0.00 0.00 0.00 49 1015.1
20260904172020 95 198 2.0 5.0 0.00 0.00 0.00 50 1015.2
20260904171555 95 199 1.0 9.0 0.00 0.00 0.00 49 1015.2
20260904171022 94 171 3.0 9.0 0.00 0.00 0.00 49 1015.1
20260904170522 94 0 1.0 6.0 0.00 0.00 0.00 53 1015.2
20260904170047 94 114 1.0 7.0 0.00 0.00 0.00 52 1015.2
20260904165528 94 181 1.0 7.0 0.00 0.00 0.00 52 1015.1
20260904165023 93 228 2.0 7.0 0.00 0.00 0.00 55 1015.3
20260904164550 93 169 1.0 7.0 0.00 0.00 0.00 54 1015.3
20260904164024 93 152 1.0 8.0 0.00 0.00 0.00 54 1015.3
20260904163524 92 176 1.0 8.0 0.00 0.00 0.00 56 1015.3
20260904163048 92 274 1.0 7.0 0.00 0.00 0.00 58 1015.3
20260904162524 91 155 1.0 5.0 0.00 0.00 0.00 58 1015.3
20260904162019 91 179 1.0 7.0 0.00 0.00 0.00 57 1015.3
20260904161542 91 186 2.0 7.0 0.00 0.00 0.00 58 1015.4
20260904161023 90 194 1.0 4.0 0.00 0.00 0.00 61 1015.4
20260904160523 89 232 0.0 6.0 0.00 0.00 0.00 63 1015.4
20260904160042 90 238 1.0 8.0 0.00 0.00 0.00 60 1015.4
20260904155526 89 195 2.0 8.0 0.00 0.00 0.00 62 1015.3
20260904155024 89 0 0.0 4.0 0.00 0.00 0.00 65 1015.3
20260904154546 89 192 1.0 9.0 0.00 0.00 0.00 63 1015.3
20260904154024 89 155 2.0 9.0 0.00 0.00 0.00 65 1015.3
20260904153524 88 211 1.0 7.0 0.00 0.00 0.00 66 1015.2
20260904153049 88 0 1.0 5.0 0.00 0.00 0.00 68 1015.3
20260904152521 87 235 1.0 5.0 0.00 0.00 0.00 69 1015.4
20260904152021 87 0 1.0 8.0 0.00 0.00 0.00 71 1015.2
20260904151543 87 143 0.0 8.0 0.00 0.00 0.00 70 1015.2
20260904151024 86 183 1.0 6.0 0.00 0.00 0.00 72 1015.1
20260904150524 85 146 1.0 7.0 0.00 0.00 0.00 74 1015.2
20260904150047 85 168 2.0 7.0 0.00 0.00 0.00 74 1015.2
20260904145524 85 124 1.0 8.0 0.00 0.00 0.00 74 1015.3
20260904145021 85 196 2.0 8.0 0.00 0.00 0.00 75 1015.3
20260904144545 85 191 1.0 8.0 0.00 0.00 0.00 76 1015.3
20260904144026 84 163 1.0 6.0 0.00 0.00 0.00 78 1015.3
20260904143526 83 150 1.0 5.0 0.00 0.00 0.00 79 1015.3
20260904143045 83 173 2.0 5.0 0.00 0.00 0.00 80 1015.3
20260904142524 82 216 1.0 9.0 0.00 0.00 0.00 80 1015.3
20260904142021 82 188 1.0 9.0 0.00 0.00 0.00 80 1015.2
20260904141543 82 188 1.0 7.0 0.00 0.00 0.00 80 1015.3
20260904141026 82 172 2.0 7.0 0.00 0.00 0.00 82 1015.3
20260904140526 81 0 2.0 7.0 0.00 0.00 0.00 83 1015.3
20260904140047 81 193 1.0 6.0 0.00 0.00 0.00 83 1015.3
20260904135521 80 159 1.0 6.0 0.00 0.00 0.00 84 1015.2
20260904135025 80 0 1.0 7.0 0.00 0.00 0.00 84 1015.2
20260904134546 80 165 2.0 7.0 0.00 0.00 0.00 85 1015.2
20260904134027 79 146 3.0 7.0 0.00 0.00 0.00 86 1015.1
20260904133526 79 165 1.0 6.0 0.00 0.00 0.00 87 1014.9
20260904133042 79 0 0.0 8.0 0.00 0.00 0.00 87 1014.9
20260904132526 79 146 1.0 8.0 0.00 0.00 0.00 87 1014.8
20260904132025 78 174 2.0 8.0 0.00 0.00 0.00 87 1014.6
20260904131558 78 192 2.0 7.0 0.00 0.00 0.00 88 1014.6
20260904131025 78 143 1.0 6.0 0.00 0.00 0.00 88 1014.6
20260904130527 78 151 2.0 7.0 0.00 0.00 0.00 89 1014.5
20260904130045 77 210 1.0 7.0 0.00 0.00 0.00 89 1014.5
20260904125527 77 152 1.0 5.0 0.00 0.00 0.00 89 1014.4
20260904125024 77 176 1.0 5.0 0.00 0.00 0.00 89 1014.4
20260904124542 77 152 1.0 7.0 0.00 0.00 0.00 89 1014.5
20260904124022 76 170 2.0 8.0 0.00 0.00 0.00 89 1014.3
20260904123523 76 174 3.0 8.0 0.00 0.00 0.00 89 1014.4
20260904123041 76 167 1.0 7.0 0.00 0.00 0.00 89 1014.3
20260904122525 76 187 1.0 7.0 0.00 0.00 0.00 89 1014.3
20260904122023 76 155 1.0 7.0 0.00 0.00 0.00 89 1014.3
20260904121546 76 196 0.0 7.0 0.00 0.00 0.00 89 1014.2
20260904121024 76 210 1.0 6.0 0.00 0.00 0.00 88 1014.2
20260904120524 76 172 2.0 7.0 0.00 0.00 0.00 88 1014.2
20260904120050 76 159 2.0 7.0 0.00 0.00 0.00 88 1014.2
20260904115524 76 158 1.0 7.0 0.00 0.00 0.00 88 1014.2
20260904115024 76 171 1.0 7.0 0.00 0.00 0.00 88 1014.2
20260904114544 76 0 2.0 7.0 0.00 0.00 0.00 88 1014.0
20260904114023 76 194 1.0 6.0 0.00 0.00 0.00 87 1014.1
20260904113522 76 162 1.0 6.0 0.00 0.00 0.00 87 1014.0
20260904113041 76 178 1.0 6.0 0.00 0.00 0.00 87 1014.0
20260904112524 76 164 1.0 7.0 0.00 0.00 0.00 87 1013.9
20260904112024 76 171 0.0 7.0 0.00 0.00 0.00 86 1013.9
20260904111548 76 0 1.0 6.0 0.00 0.00 0.00 86 1013.8
20260904111024 76 177 1.0 5.0 0.00 0.00 0.00 86 1013.8
20260904110524 76 166 1.0 5.0 0.00 0.00 0.00 85 1013.8
20260904110044 76 132 1.0 5.0 0.00 0.00 0.00 85 1013.8
20260904105523 76 171 1.0 5.0 0.00 0.00 0.00 85 1014.0
20260904105022 76 151 1.0 7.0 0.00 0.00 0.00 85 1013.8
20260904104547 76 183 1.0 7.0 0.00 0.00 0.00 85 1013.7
20260904104025 76 151 1.0 5.0 0.00 0.00 0.00 84 1013.7
20260904103522 76 185 1.0 5.0 0.00 0.00 0.00 84 1013.6
20260904103050 76 142 1.0 4.0 0.00 0.00 0.00 84 1013.6
20260904102521 76 165 1.0 5.0 0.00 0.00 0.00 84 1013.7
20260904102025 76 141 1.0 5.0 0.00 0.00 0.00 83 1013.7
20260904101546 76 0 0.0 7.0 0.00 0.00 0.00 83 1013.7
20260904101026 76 188 2.0 7.0 0.00 0.00 0.00 83 1013.7
20260904100524 76 0 0.0 4.0 0.00 0.00 0.00 83 1013.6
20260904100042 76 0 1.0 4.0 0.00 0.00 0.00 83 1013.6
20260904095525 77 0 0.0 4.0 0.00 0.00 0.00 83 1013.6
20260904095022 77 0 1.0 4.0 0.00 0.00 0.00 83 1013.6
20260904094549 77 147 0.0 5.0 0.00 0.00 0.00 82 1013.5
20260904094021 77 188 1.0 5.0 0.00 0.00 0.00 82 1013.5
20260904093524 77 0 1.0 5.0 0.00 0.00 0.00 82 1013.5
20260904093045 77 219 1.0 4.0 0.00 0.00 0.00 82 1013.5
20260904092524 77 192 0.0 4.0 0.00 0.00 0.00 82 1013.6
20260904092024 77 175 0.0 4.0 0.00 0.00 0.00 82 1013.6
20260904091553 77 0 1.0 4.0 0.00 0.00 0.00 81 1013.6
20260904091023 77 171 1.0 3.0 0.00 0.00 0.00 81 1013.7
20260904090523 77 165 1.0 6.0 0.00 0.00 0.00 81 1013.7
20260904090042 77 0 1.0 6.0 0.00 0.00 0.00 81 1013.7
20260904085523 77 144 1.0 4.0 0.00 0.00 0.00 80 1013.6
20260904085023 77 158 1.0 5.0 0.00 0.00 0.00 80 1013.7
20260904084548 78 0 1.0 5.0 0.00 0.00 0.00 80 1013.7
20260904084027 78 180 1.0 4.0 0.00 0.00 0.00 80 1013.6
20260904083524 78 0 0.0 3.0 0.00 0.00 0.00 79 1013.6
20260904083103 78 0 0.0 4.0 0.00 0.00 0.00 79 1013.5
20260904082524 78 165 1.0 4.0 0.00 0.00 0.00 79 1013.4
20260904082024 78 0 1.0 4.0 0.00 0.00 0.00 79 1013.5
20260904081544 78 176 0.0 4.0 0.00 0.00 0.00 79 1013.5
20260904081025 78 196 0.0 5.0 0.00 0.00 0.00 79 1013.5
20260904080522 79 175 1.0 6.0 0.00 0.00 0.00 79 1013.5
20260904080049 79 144 0.0 7.0 0.00 0.00 0.00 79 1013.5
20260904075522 79 161 1.0 7.0 0.00 0.00 0.00 78 1013.4
20260904075029 79 153 1.0 4.0 0.00 0.00 0.00 78 1013.4
20260904074602 79 128 1.0 4.0 0.00 0.00 0.00 78 1013.4
20260904074025 79 174 1.0 9.0 0.00 0.00 0.00 77 1013.4
20260904073524 79 169 2.0 9.0 0.00 0.00 0.00 77 1013.4
20260904073045 79 196 2.0 5.0 0.00 0.00 0.00 77 1013.5
20260904072523 79 161 1.0 5.0 0.00 0.00 0.00 77 1013.5
20260904072023 79 191 1.0 4.0 0.00 0.00 0.00 76 1013.5
20260904071544 79 140 1.0 8.0 0.00 0.00 0.00 76 1013.5
20260904071025 79 0 2.0 8.0 0.00 0.00 0.00 76 1013.4
20260904070525 79 165 1.0 8.0 0.00 0.00 0.00 76 1013.5
20260904070042 79 199 1.0 8.0 0.00 0.00 0.00 75 1013.6
20260904065524 79 136 2.0 6.0 0.00 0.00 0.00 75 1013.6
20260904065024 79 167 1.0 8.0 0.00 0.00 0.00 75 1013.6
20260904064549 79 0 1.0 8.0 0.00 0.00 0.00 75 1013.7
20260904064025 79 81 1.0 7.0 0.00 0.00 0.00 74 1013.7
20260904063523 79 123 2.0 7.0 0.00 0.00 0.00 74 1013.8
20260904063047 79 173 1.0 7.0 0.00 0.00 0.00 74 1013.7
20260904062528 80 182 1.0 7.0 0.00 0.00 0.00 74 1013.7
20260904062022 79 175 1.0 8.0 0.00 0.00 0.00 74 1013.7
20260904061541 80 168 2.0 8.0 0.00 0.00 0.00 73 1013.8
20260904061026 80 225 1.0 4.0 0.00 0.00 0.00 73 1013.8
20260904060522 80 178 0.0 6.0 0.00 0.00 0.00 74 1013.7
20260904060047 80 198 1.0 6.0 0.00 0.00 0.00 73 1013.7
20260904055524 80 150 1.0 5.0 0.00 0.00 0.00 73 1013.6
20260904055025 80 0 1.0 6.0 0.00 0.00 0.00 73 1013.7
20260904054545 80 186 1.0 7.0 0.00 0.00 0.00 73 1013.8
20260904054023 80 0 2.0 7.0 0.00 0.00 0.00 72 1013.7
20260904053522 80 184 1.0 6.0 0.00 0.00 0.00 72 1013.8
20260904053042 80 180 1.0 4.0 0.00 0.00 0.00 72 1013.7
20260904052522 80 171 1.0 5.0 0.00 0.00 0.00 72 1013.7
20260904052024 80 164 1.0 7.0 0.00 0.00 0.00 72 1013.7
20260904051542 80 145 1.0 7.0 0.00 0.00 0.00 72 1013.7
20260904051023 80 185 2.0 6.0 0.00 0.00 0.00 71 1013.6
20260904050521 80 181 2.0 5.0 0.00 0.00 0.00 71 1013.6
20260904050047 80 140 1.0 7.0 0.00 0.00 0.00 70 1013.6
20260904045525 80 177 2.0 7.0 0.00 0.00 0.00 70 1013.6
20260904045026 80 171 1.0 6.0 0.00 0.00 0.00 69 1013.6
20260904044549 81 160 1.0 7.0 0.00 0.00 0.00 69 1013.6
20260904044024 81 178 1.0 7.0 0.00 0.00 0.00 69 1013.5
20260904043529 81 0 1.0 6.0 0.00 0.00 0.00 69 1013.7
20260904043050 81 161 1.0 6.0 0.00 0.00 0.00 69 1013.6
20260904042524 81 159 1.0 5.0 0.00 0.00 0.00 69 1013.7
20260904042023 81 196 1.0 8.0 0.00 0.00 0.00 68 1013.7
20260904041543 81 132 1.0 8.0 0.00 0.00 0.00 68 1013.7
20260904041023 81 158 1.0 4.0 0.00 0.00 0.00 67 1013.7
20260904040525 81 189 1.0 6.0 0.00 0.00 0.00 68 1013.8
20260904040100 81 176 0.0 6.0 0.00 0.00 0.00 68 1013.8
20260904035521 81 165 1.0 7.0 0.00 0.00 0.00 68 1013.8
20260904035023 81 210 1.0 7.0 0.00 0.00 0.00 67 1013.8
20260904034543 81 161 1.0 7.0 0.00 0.00 0.00 67 1013.9
20260904034021 82 184 1.0 8.0 0.00 0.00 0.00 67 1013.8
20260904033526 82 169 3.0 9.0 0.00 0.00 0.00 66 1013.8
20260904033047 82 158 2.0 9.0 0.00 0.00 0.00 66 1013.8
20260904032521 82 175 4.0 10.0 0.00 0.00 0.00 66 1013.9
20260904032025 82 149 3.0 10.0 0.00 0.00 0.00 67 1013.9
20260904031548 82 151 2.0 11.0 0.00 0.00 0.00 67 1013.8
20260904031023 82 156 3.0 11.0 0.00 0.00 0.00 68 1013.9
20260904030523 82 191 2.0 9.0 0.00 0.00 0.00 68 1013.8
20260904030043 82 198 2.0 7.0 0.00 0.00 0.00 69 1013.7
20260904025524 83 163 1.0 6.0 0.00 0.00 0.00 68 1013.5
20260904025024 83 153 1.0 8.0 0.00 0.00 0.00 68 1013.4
20260904024543 83 104 2.0 11.0 0.00 0.00 0.00 68 1013.3
20260904024023 83 145 2.0 11.0 0.00 0.00 0.00 68 1013.2
20260904023525 83 188 2.0 11.0 0.00 0.00 0.00 68 1013.2
20260904023050 83 196 2.0 11.0 0.00 0.00 0.00 68 1013.1
20260904022521 83 154 3.0 10.0 0.00 0.00 0.00 68 1013.1
20260904022023 83 142 1.0 8.0 0.00 0.00 0.00 68 1013.1
20260904021545 83 159 2.0 7.0 0.00 0.00 0.00 68 1013.0
20260904021026 84 169 2.0 7.0 0.00 0.00 0.00 68 1013.0
20260904020528 84 199 1.0 10.0 0.00 0.00 0.00 68 1012.7
20260904020044 84 206 3.0 10.0 0.00 0.00 0.00 68 1012.8
20260904015522 84 204 2.0 9.0 0.00 0.00 0.00 68 1012.8
20260904015027 84 157 2.0 9.0 0.00 0.00 0.00 68 1012.7
20260904014622 84 145 2.0 10.0 0.00 0.00 0.00 68 1012.4
20260904014026 84 161 2.0 10.0 0.00 0.00 0.00 68 1012.3
20260904013524 84 94 2.0 13.0 0.00 0.00 0.00 67 1012.2
20260904013049 84 194 2.0 13.0 0.00 0.00 0.00 67 1012.3
20260904012526 85 122 1.0 7.0 0.00 0.00 0.00 66 1012.3
20260904012028 85 169 2.0 9.0 0.00 0.00 0.00 66 1012.4
20260904011544 85 144 2.0 9.0 0.00 0.00 0.00 65 1012.1
20260904011024 85 138 3.0 8.0 0.00 0.00 0.00 64 1012.1
20260904010523 85 209 1.0 8.0 0.00 0.00 0.00 64 1012.1
20260904010059 85 164 1.0 7.0 0.00 0.00 0.00 63 1012.0
20260904005523 86 157 3.0 11.0 0.00 0.00 0.00 62 1012.2
20260904005023 86 177 3.0 11.0 0.00 0.00 0.00 62 1012.1
20260904004545 86 103 3.0 9.0 0.00 0.00 0.00 61 1012.1
20260904004024 86 146 3.0 9.0 0.00 0.00 0.00 61 1012.2
20260904003524 86 183 2.0 8.0 0.00 0.00 0.00 62 1012.1
20260904003057 86 156 2.0 8.0 0.00 0.00 0.00 62 1012.0
20260904002524 86 155 1.0 9.0 0.00 0.00 0.00 62 1012.2
20260904002024 87 198 2.0 9.0 0.00 0.00 0.00 62 1012.1
20260904001548 87 167 4.0 9.0 0.00 0.00 0.00 62 1012.0
20260904001023 87 230 3.0 9.0 0.00 0.00 0.00 63 1012.1
20260904000526 87 167 3.0 8.0 0.00 0.00 0.00 62 1012.0
20260904000044 88 136 2.0 10.0 0.00 0.00 0.00 62 1012.1
20260903235522 88 168 2.0 10.0 0.00 0.00 0.00 62 1012.0
20260903235022 88 196 3.0 9.0 0.00 0.00 0.00 60 1011.9